When you browse on this site, cookies collect data to enhance your experience and personalize the content and advertising you see.
Visit our Privacy Policy to learn more. By continuing to use the site, you agree to this use of cookies and data.
  • In Romania
  • List of Countries
  • For 7 days
  • Water Temperature
  • Satellite Maps
  • Weather Map
  • Weather Widgets
  • user-avatar
    Login

    Hourly Weather Arosa

    Today, 25 April, Thursday

    Time Temperature Precipitation Wind Pressure Humidity
    00:00 -2°C° 0 mm 5 mps 587 mmHg 83%
    01:00 -1°C° 0 mm 5 mps 587 mmHg 85%
    02:00 -1°C° 0 mm 5 mps 587 mmHg 85%
    03:00 -2°C° 0 mm 5 mps 587 mmHg 85%
    04:00 -2°C° 0 mm 5 mps 587 mmHg 85%
    05:00 -1°C° 0 mm 5 mps 587 mmHg 83%
    06:00 -1°C° 0 mm 5 mps 587 mmHg 81%
    07:00 -1°C° 0 mm 5 mps 588 mmHg 79%
    08:00 -1°C° 0 mm 6 mps 588 mmHg 74%
    09:00 +1°C° 0 mm 6 mps 588 mmHg 69%
    10:00 +2°C° 0 mm 6 mps 589 mmHg 64%
    11:00 +3°C° 0 mm 6 mps 589 mmHg 62%
    12:00 +4°C° 0 mm 6 mps 589 mmHg 60%
    13:00 +5°C° 0 mm 6 mps 590 mmHg 58%
    14:00 +5°C° 0 mm 6 mps 589 mmHg 61%
    15:00 +4°C° 0 mm 6 mps 589 mmHg 65%
    16:00 +4°C° 0 mm 6 mps 589 mmHg 68%
    17:00 +3°C° 0.1 mm 5 mps 588 mmHg 72%
    18:00 +2°C° 0.1 mm 5 mps 588 mmHg 77%
    19:00 +1°C° 0.1 mm 5 mps 587 mmHg 81%
    20:00 +1°C° 0 mm 5 mps 587 mmHg 82%
    21:00 +1°C° 0 mm 5 mps 587 mmHg 83%
    22:00 0°C° 0 mm 5 mps 587 mmHg 84%
    23:00 0°C° 0.1 mm 5 mps 587 mmHg 84%

    Tomorrow, 26 April, Friday

    Time Temperature Precipitation Wind Pressure Humidity
    00:00 0°C° 0.1 mm 5 mps 587 mmHg 83%
    01:00 0°C° 0.1 mm 5 mps 587 mmHg 83%
    02:00 0°C° 0.2 mm 4 mps 587 mmHg 83%
    03:00 0°C° 0.2 mm 4 mps 587 mmHg 82%
    04:00 0°C° 0.2 mm 4 mps 586 mmHg 82%
    05:00 0°C° 0.5 mm 4 mps 586 mmHg 82%
    06:00 +2°C° 0.5 mm 3 mps 586 mmHg 82%
    07:00 +2°C° 0.5 mm 3 mps 586 mmHg 82%
    08:00 +1°C° 1.4 mm 3 mps 587 mmHg 85%
    09:00 +1°C° 1.4 mm 3 mps 587 mmHg 88%
    10:00 +1°C° 1.4 mm 3 mps 587 mmHg 91%
    11:00 0°C° 1.7 mm 3 mps 587 mmHg 92%
    12:00 -1°C° 1.7 mm 3 mps 587 mmHg 94%
    13:00 -2°C° 1.7 mm 3 mps 587 mmHg 95%
    14:00 -4°C° 1.3 mm 3 mps 587 mmHg 95%
    15:00 -4°C° 1.3 mm 3 mps 587 mmHg 95%
    16:00 -5°C° 1.3 mm 3 mps 587 mmHg 96%
    17:00 -5°C° 0.6 mm 3 mps 587 mmHg 96%
    18:00 -5°C° 0.6 mm 3 mps 587 mmHg 96%
    19:00 -6°C° 0.6 mm 3 mps 587 mmHg 97%
    20:00 -5°C° 0.2 mm 2 mps 587 mmHg 96%
    21:00 -6°C° 0.2 mm 2 mps 587 mmHg 96%
    22:00 -6°C° 0.2 mm 2 mps 587 mmHg 96%
    23:00 -6°C° 0.1 mm 1 mps 587 mmHg 95%

    Day after tomorrow, 27 April, Saturday

    Time Temperature Precipitation Wind Pressure Humidity
    00:00 -6°C° 0.1 mm 1 mps 587 mmHg 94%
    01:00 -7°C° 0.1 mm 1 mps 587 mmHg 93%
    02:00 -7°C° 0 mm 1 mps 587 mmHg 92%
    03:00 -8°C° 0 mm 1 mps 586 mmHg 91%
    04:00 -8°C° 0 mm 1 mps 586 mmHg 90%
    05:00 -7°C° 0 mm 1 mps 587 mmHg 89%
    06:00 -6°C° 0 mm 1 mps 587 mmHg 88%
    07:00 -4°C° 0 mm 1 mps 588 mmHg 87%
    08:00 -3°C° 0 mm 1 mps 588 mmHg 84%
    09:00 -1°C° 0 mm 1 mps 589 mmHg 81%
    10:00 +1°C° 0 mm 1 mps 589 mmHg 79%
    11:00 +2°C° 0 mm 1 mps 590 mmHg 77%
    12:00 +2°C° 0 mm 1 mps 590 mmHg 76%
    13:00 +3°C° 0 mm 1 mps 590 mmHg 74%
    14:00 +3°C° 0.1 mm 1 mps 589 mmHg 76%
    15:00 +3°C° 0.1 mm 1 mps 589 mmHg 78%
    16:00 +3°C° 0.1 mm 1 mps 589 mmHg 79%
    17:00 +2°C° 0.8 mm 1 mps 588 mmHg 85%
    18:00 -1°C° 0.8 mm 2 mps 588 mmHg 91%
    19:00 -2°C° 0.8 mm 2 mps 587 mmHg 96%
    20:00 -3°C° 2 mm 2 mps 587 mmHg 97%
    21:00 -4°C° 2 mm 3 mps 588 mmHg 97%
    22:00 -5°C° 2 mm 3 mps 588 mmHg 97%
    23:00 -6°C° 1.3 mm 3 mps 587 mmHg 97%

    28 April, Sunday

    Time Temperature Precipitation Wind Pressure Humidity
    00:00 -7°C° 1.3 mm 3 mps 587 mmHg 97%
    01:00 -8°C° 1.3 mm 3 mps 587 mmHg 97%
    02:00 -8°C° 0.8 mm 3 mps 586 mmHg 97%
    03:00 -8°C° 0.8 mm 3 mps 586 mmHg 97%
    04:00 -8°C° 0.8 mm 3 mps 586 mmHg 97%
    05:00 -8°C° 0.4 mm 3 mps 586 mmHg 97%
    06:00 -8°C° 0.4 mm 3 mps 586 mmHg 96%
    07:00 -8°C° 0.4 mm 3 mps 586 mmHg 95%
    08:00 -8°C° 0.2 mm 3 mps 587 mmHg 93%
    09:00 -7°C° 0.2 mm 3 mps 587 mmHg 91%
    10:00 -7°C° 0.2 mm 3 mps 587 mmHg 89%
    11:00 -6°C° 0.2 mm 3 mps 587 mmHg 90%
    12:00 -6°C° 0.2 mm 3 mps 587 mmHg 91%
    13:00 -6°C° 0.2 mm 3 mps 587 mmHg 92%
    14:00 -6°C° 0.3 mm 3 mps 587 mmHg 92%
    15:00 -6°C° 0.3 mm 3 mps 586 mmHg 92%
    16:00 -6°C° 0.3 mm 3 mps 586 mmHg 93%
    17:00 -6°C° 0.4 mm 3 mps 586 mmHg 94%
    18:00 -7°C° 0.4 mm 3 mps 586 mmHg 95%
    19:00 -7°C° 0.4 mm 3 mps 586 mmHg 96%
    20:00 -8°C° 0.4 mm 3 mps 586 mmHg 97%
    21:00 -8°C° 0.4 mm 3 mps 587 mmHg 97%
    22:00 -8°C° 0.4 mm 3 mps 587 mmHg 97%
    23:00 -8°C° 0.5 mm 3 mps 587 mmHg 97%

    29 April, Monday

    Time Temperature Precipitation Wind Pressure Humidity
    00:00 -8°C° 0.5 mm 3 mps 587 mmHg 97%
    01:00 -8°C° 0.5 mm 3 mps 587 mmHg 97%
    02:00 -8°C° 0.4 mm 3 mps 587 mmHg 97%
    03:00 -8°C° 0.4 mm 3 mps 587 mmHg 97%
    04:00 -8°C° 0.4 mm 3 mps 587 mmHg 97%
    05:00 -8°C° 0.2 mm 3 mps 587 mmHg 97%
    06:00 -8°C° 0.2 mm 3 mps 587 mmHg 96%
    07:00 -7°C° 0.2 mm 3 mps 587 mmHg 96%
    08:00 -6°C° 0.1 mm 3 mps 587 mmHg 95%
    09:00 -6°C° 0.1 mm 3 mps 587 mmHg 95%
    10:00 -5°C° 0.1 mm 3 mps 588 mmHg 95%
    11:00 -5°C° 0.1 mm 3 mps 588 mmHg 95%
    12:00 -4°C° 0.1 mm 3 mps 588 mmHg 96%
    13:00 -4°C° 0.1 mm 3 mps 588 mmHg 96%
    14:00 -2°C° 0.1 mm 3 mps 588 mmHg 95%
    15:00 -2°C° 0.1 mm 2 mps 588 mmHg 95%
    16:00 -2°C° 0.1 mm 2 mps 588 mmHg 94%
    17:00 -3°C° 0 mm 2 mps 588 mmHg 95%
    18:00 -3°C° 0 mm 2 mps 588 mmHg 95%
    19:00 -2°C° 0 mm 1 mps 587 mmHg 96%
    20:00 -3°C° 0 mm 1 mps 587 mmHg 96%
    21:00 -4°C° 0 mm 1 mps 587 mmHg 95%
    22:00 -6°C° 0 mm 1 mps 587 mmHg 95%
    23:00 -7°C° 0 mm 1 mps 587 mmHg 94%

    30 April, Tuesday

    Time Temperature Precipitation Wind Pressure Humidity
    00:00 -7°C° 0 mm 1 mps 586 mmHg 94%
    01:00 -7°C° 0 mm 1 mps 586 mmHg 93%
    02:00 -8°C° 0 mm 1 mps 586 mmHg 92%
    03:00 -8°C° 0 mm 1 mps 586 mmHg 92%
    04:00 -8°C° 0 mm 1 mps 585 mmHg 92%
    05:00 -7°C° 0 mm 1 mps 586 mmHg 91%
    06:00 -4°C° 0 mm 1 mps 586 mmHg 91%
    07:00 -3°C° 0 mm 1 mps 586 mmHg 90%
    08:00 -2°C° 0 mm 1 mps 587 mmHg 90%
    09:00 -3°C° 0 mm 2 mps 587 mmHg 90%
    10:00 -1°C° 0 mm 2 mps 587 mmHg 90%
    11:00 -1°C° 0 mm 2 mps 587 mmHg 90%
    12:00 -1°C° 0 mm 2 mps 587 mmHg 91%
    13:00 +1°C° 0 mm 2 mps 587 mmHg 91%
    14:00 +1°C° 0.1 mm 2 mps 587 mmHg 91%
    15:00 +1°C° 0.1 mm 2 mps 587 mmHg 92%
    16:00 +1°C° 0.1 mm 2 mps 587 mmHg 92%
    17:00 -1°C° 0.1 mm 2 mps 586 mmHg 93%
    18:00 -1°C° 0.1 mm 2 mps 586 mmHg 95%
    19:00 0°C° 0.1 mm 1 mps 586 mmHg 97%
    20:00 -1°C° 0 mm 1 mps 586 mmHg 97%
    21:00 -1°C° 0 mm 1 mps 586 mmHg 97%
    22:00 -2°C° 0 mm 1 mps 586 mmHg 98%
    23:00 -3°C° 0 mm 1 mps 586 mmHg 97%
    Show more